Home > Weather > Naha > Past weeks

Flag for Japan Weather for the Past 2 Weeks in Naha, Okinawa, Japan

Now
61 °F

Passing clouds.


Feels Like: 61 °F
Forecast: 59 / 67 °F
Wind: 8 mph from Northwest

Location: Naha Airport

Current Time: Feb 9, 2016 at 9:40:46 AM

Latest Report: Feb 9, 2016 at 8:30 AM


Visibility: N/A

Pressure: 30.24 "Hg

Humidity: 52%

Dew point: 43 °F

Location of NahaLocation

Historic Weather in Naha — Graph

°F

Naha Temperature Yesterday

Maximum temperature yesterday: 61 °F (at 11:00 AM)
Minimum temperature yesterday: 54 °F (at 3:30 AM)
Average temperature yesterday: 57 °F

High & Low Weather Summary for the Past Weeks

 TemperatureHumidityPressure
High77 °F (Jan 29, 2:30 PM)94% (Jan 29, 11:48 PM)30.45 "Hg (Jan 29, 11:48 PM)
Low48 °F (Jan 25, 8:30 AM)34% (Feb 8, 11:30 AM)29.95 "Hg (Feb 5, 3:30 PM)
Average62 °F67%30.17 "Hg
* Reported Jan 25 8:00 AM — Feb 9 8:00 AM, Naha, Weather by CustomWeather, © 2016

Note: Actual official high and low records may vary slightly from our data, if they occured in-between our weather recording intervals... More about our weather records

Advertising

Naha Weather History for the Previous 24 Hours

 ConditionsComfort  
Time TempWeatherWind HumidityBarometerVisibility
8:00 AM
Tue, Feb 9
59 °FPassing clouds.7 mph55%30.21 "HgN/A
7:30 AM59 °FScattered clouds.5 mph55%30.21 "HgN/A
7:00 AM57 °FPassing clouds.6 mph55%30.21 "HgN/A
6:30 AM57 °FPassing clouds.6 mph59%30.18 "HgN/A
6:00 AM57 °FPassing clouds.6 mph59%30.18 "HgN/A
5:30 AM57 °FPassing clouds.6 mph59%30.18 "HgN/A
5:00 AM57 °FPassing clouds.2 mph59%30.18 "HgN/A
4:30 AM59 °FPassing clouds.6 mph51%30.18 "HgN/A
4:00 AM57 °FPassing clouds.5 mph59%30.18 "HgN/A
3:30 AM57 °FPassing clouds.6 mph55%30.18 "HgN/A
3:00 AM57 °FPassing clouds.1 mph55%30.18 "HgN/A
2:30 AM59 °FPassing clouds.2 mph51%30.18 "HgN/A
2:00 AM54 °FPassing clouds.2 mph58%30.21 "HgN/A
1:30 AM54 °FPassing clouds.2 mph58%30.21 "HgN/A
1:00 AM55 °FPassing clouds.3 mph55%30.21 "HgN/A
12:30 AM54 °FPassing clouds.3 mph58%30.21 "HgN/A
12:00 AM55 °FPassing clouds.3 mph55%30.21 "HgN/A
11:30 PM
Mon, Feb 8
57 °FPassing clouds.2 mph51%30.21 "HgN/A
11:00 PM57 °FPassing clouds.5 mph51%30.21 "HgN/A
10:30 PM57 °FPassing clouds.5 mph48%30.21 "HgN/A
10:00 PM57 °FPassing clouds.7 mph51%30.21 "HgN/A
9:30 PM57 °FPassing clouds.9 mph51%30.21 "HgN/A
9:00 PM57 °FPassing clouds.9 mph51%30.21 "HgN/A
8:30 PM57 °FPassing clouds.6 mph48%30.21 "HgN/A
8:00 PM57 °FPassing clouds.10 mph48%30.21 "HgN/A
7:30 PM57 °FPassing clouds.9 mph48%30.21 "HgN/A
7:00 PM57 °FPassing clouds.10 mph44%30.18 "HgN/A
6:30 PM57 °FClear.14 mph44%30.18 "Hg10 mi
6:00 PM57 °FPassing clouds.9 mph44%30.18 "HgN/A
5:30 PM59 °FSunny.12 mph42%30.18 "Hg10 mi
5:00 PM59 °FPassing clouds.10 mph42%30.18 "HgN/A
4:30 PM59 °FSunny.14 mph42%30.18 "Hg10 mi
4:00 PM59 °FSunny.13 mph39%30.18 "Hg10 mi
3:30 PM59 °FSunny.14 mph42%30.18 "Hg10 mi
3:00 PM59 °FSunny.14 mph39%30.18 "Hg10 mi
2:30 PM61 °FSunny.14 mph36%30.18 "Hg10 mi
2:00 PM59 °FSunny.14 mph39%30.21 "Hg10 mi
1:30 PM61 °FSunny.16 mph39%30.21 "Hg10 mi
1:00 PM59 °FSunny.16 mph39%30.21 "Hg10 mi
12:30 PM61 °FSunny.16 mph36%30.21 "Hg10 mi
12:00 PM61 °FSunny.17 mph34%30.24 "Hg10 mi
11:30 AM59 °FSunny.18 mph34%30.24 "Hg10 mi
11:00 AM61 °FSunny.18 mph39%30.24 "Hg10 mi
10:30 AM59 °FSunny.20 mph36%30.24 "Hg10 mi
10:00 AM57 °FSunny.21 mph39%30.24 "Hg10 mi
9:30 AM57 °FSunny.20 mph36%30.24 "Hg10 mi
9:00 AM55 °FSunny.20 mph38%30.24 "Hg10 mi
Weather by CustomWeather, © 2016

See weather overviewHow to use our weather pages